TimeCST,TemperatureF,Dew PointF,Humidity,Sea Level PressureIn,VisibilityMPH,Wind Direction,Wind SpeedMPH,Gust SpeedMPH,PrecipitationIn,Events,Conditions,WindDirDegrees,DateUTC
12:13 AM,28.4,23.0,80,30.01,10.0,NNE,10.4,-,N/A,,Overcast,30,2012-12-08 06:13:00
12:34 AM,28.4,23.0,80,30.01,10.0,NNE,8.1,-,N/A,,Overcast,30,2012-12-08 06:34:00
12:53 AM,28.4,23.0,80,30.01,10.0,NE,8.1,-,N/A,,Mostly Cloudy,40,2012-12-08 06:53:00
1:13 AM,28.4,23.0,80,30.00,7.0,NNE,9.2,-,N/A,,Mostly Cloudy,30,2012-12-08 07:13:00
1:34 AM,28.4,23.0,80,30.01,7.0,NE,6.9,-,N/A,,Overcast,40,2012-12-08 07:34:00
2:13 AM,26.6,21.2,80,30.01,7.0,North,6.9,-,N/A,,Overcast,10,2012-12-08 08:13:00
2:33 AM,26.6,21.2,80,30.02,5.0,North,6.9,-,N/A,,Haze,10,2012-12-08 08:33:00
2:53 AM,26.6,23.0,86,30.03,3.0,North,8.1,-,N/A,,Overcast,10,2012-12-08 08:53:00
3:13 AM,28.4,23.0,80,30.03,2.0,NNE,6.9,-,N/A,,Overcast,30,2012-12-08 09:13:00
3:33 AM,28.4,23.0,80,30.03,2.0,NNE,8.1,-,N/A,,Overcast,20,2012-12-08 09:33:00
3:54 AM,28.4,23.0,80,30.03,3.0,NE,5.8,-,N/A,,Overcast,50,2012-12-08 09:54:00
4:13 AM,28.4,23.0,80,30.03,4.0,ENE,5.8,-,N/A,,Overcast,60,2012-12-08 10:13:00
4:33 AM,28.4,23.0,80,30.03,4.0,East,5.8,-,N/A,,Overcast,90,2012-12-08 10:33:00
4:54 AM,28.4,23.0,80,30.03,5.0,ESE,4.6,-,N/A,,Overcast,110,2012-12-08 10:54:00
5:13 AM,28.4,23.0,80,30.04,5.0,East,4.6,-,N/A,,Overcast,100,2012-12-08 11:13:00
5:33 AM,28.4,23.0,80,30.03,4.0,East,3.5,-,N/A,,Overcast,80,2012-12-08 11:33:00
5:54 AM,28.4,23.0,80,30.03,4.0,ENE,3.5,-,N/A,,Overcast,70,2012-12-08 11:54:00
6:13 AM,28.4,23.0,80,30.03,4.0,ENE,5.8,-,N/A,,Overcast,70,2012-12-08 12:13:00
6:33 AM,28.4,23.0,80,30.04,5.0,ENE,5.8,-,N/A,,Overcast,70,2012-12-08 12:33:00
6:53 AM,28.4,23.0,80,30.04,4.0,East,5.8,-,N/A,,Overcast,80,2012-12-08 12:53:00
7:14 AM,28.4,23.0,80,30.04,4.0,NE,6.9,-,N/A,,Overcast,50,2012-12-08 13:14:00
7:33 AM,28.4,23.0,80,30.04,3.0,East,3.5,-,N/A,,Overcast,100,2012-12-08 13:33:00
7:53 AM,28.4,23.0,80,30.04,2.5,ESE,5.8,-,N/A,,Overcast,110,2012-12-08 13:53:00
8:14 AM,28.4,23.0,80,30.04,3.0,ESE,5.8,-,N/A,,Overcast,110,2012-12-08 14:14:00
8:33 AM,28.4,23.0,80,30.04,3.0,East,8.1,-,N/A,,Overcast,100,2012-12-08 14:33:00
8:53 AM,28.4,24.8,86,30.04,4.0,ESE,6.9,-,N/A,,Overcast,110,2012-12-08 14:53:00
9:14 AM,28.4,24.8,86,30.05,3.0,ESE,4.6,-,N/A,,Overcast,120,2012-12-08 15:14:00
9:33 AM,28.4,24.8,86,30.05,3.0,East,6.9,-,N/A,,Overcast,100,2012-12-08 15:33:00
9:54 AM,28.4,26.6,93,30.05,2.0,SE,5.8,-,N/A,,Overcast,130,2012-12-08 15:54:00
10:13 AM,30.2,26.6,86,30.06,1.8,SSE,5.8,-,N/A,,Overcast,150,2012-12-08 16:13:00
10:33 AM,30.2,26.6,86,30.06,2.5,ESE,6.9,-,N/A,,Overcast,120,2012-12-08 16:33:00
10:54 AM,30.2,26.6,86,30.06,3.0,ESE,5.8,-,N/A,,Overcast,110,2012-12-08 16:54:00
11:14 AM,30.2,26.6,86,30.05,3.0,ESE,4.6,-,N/A,,Overcast,110,2012-12-08 17:14:00
11:33 AM,32.0,28.4,87,30.04,4.0,East,4.6,-,N/A,,Overcast,100,2012-12-08 17:33:00
11:53 AM,32.0,28.4,87,30.03,7.0,ESE,4.6,-,N/A,,Scattered Clouds,120,2012-12-08 17:53:00
12:14 PM,33.8,30.2,87,30.02,7.0,East,3.5,-,N/A,,Clear,100,2012-12-08 18:14:00
12:34 PM,33.8,30.2,87,30.01,7.0,East,3.5,-,N/A,,Clear,100,2012-12-08 18:34:00
12:53 PM,33.8,28.4,81,30.01,10.0,East,4.6,-,N/A,,Clear,80,2012-12-08 18:53:00
1:14 PM,33.8,28.4,81,30.00,10.0,East,4.6,-,N/A,,Clear,80,2012-12-08 19:14:00
1:33 PM,35.6,30.2,81,30.01,10.0,ESE,5.8,-,N/A,,Scattered Clouds,110,2012-12-08 19:33:00
1:53 PM,35.6,28.4,75,30.01,10.0,SE,6.9,-,N/A,,Mostly Cloudy,140,2012-12-08 19:53:00
2:14 PM,35.6,28.4,75,30.00,10.0,ESE,6.9,-,N/A,,Mostly Cloudy,110,2012-12-08 20:14:00
2:33 PM,35.6,28.4,75,29.99,10.0,NE,5.8,-,N/A,,Scattered Clouds,50,2012-12-08 20:33:00
2:53 PM,33.8,28.4,81,29.98,10.0,NE,5.8,-,N/A,,Clear,50,2012-12-08 20:53:00
3:14 PM,33.8,28.4,81,29.98,10.0,NE,5.8,-,N/A,,Clear,50,2012-12-08 21:14:00
3:33 PM,33.8,28.4,81,29.98,10.0,ENE,5.8,-,N/A,,Clear,60,2012-12-08 21:33:00
3:53 PM,33.8,28.4,81,29.99,10.0,East,6.9,-,N/A,,Clear,100,2012-12-08 21:53:00
4:14 PM,33.8,28.4,81,29.98,10.0,East,6.9,-,N/A,,Clear,100,2012-12-08 22:14:00
4:33 PM,33.8,28.4,81,29.98,10.0,ESE,6.9,-,N/A,,Clear,110,2012-12-08 22:33:00
4:54 PM,33.8,28.4,81,29.98,10.0,ESE,8.1,-,N/A,,Clear,110,2012-12-08 22:54:00
5:13 PM,33.8,28.4,81,29.97,10.0,East,9.2,-,N/A,,Clear,100,2012-12-08 23:13:00
5:33 PM,33.8,28.4,81,29.97,10.0,East,9.2,-,N/A,,Clear,100,2012-12-08 23:33:00
5:54 PM,33.8,26.6,75,29.98,10.0,East,8.1,-,N/A,,Clear,100,2012-12-08 23:54:00
6:14 PM,33.8,28.4,81,29.98,10.0,East,6.9,-,N/A,,Clear,100,2012-12-09 00:14:00
6:34 PM,33.8,28.4,81,29.99,10.0,ESE,6.9,-,N/A,,Clear,110,2012-12-09 00:34:00
6:54 PM,33.8,28.4,81,29.99,10.0,ESE,9.2,-,N/A,,Clear,120,2012-12-09 00:54:00
7:13 PM,33.8,26.6,75,29.99,10.0,ESE,8.1,-,N/A,,Scattered Clouds,120,2012-12-09 01:13:00
7:34 PM,33.8,26.6,75,29.99,10.0,ESE,9.2,-,N/A,,Scattered Clouds,120,2012-12-09 01:34:00
7:54 PM,33.8,28.4,81,29.99,10.0,ESE,9.2,-,N/A,,Scattered Clouds,110,2012-12-09 01:54:00
8:13 PM,33.8,28.4,81,29.98,10.0,ESE,8.1,-,N/A,,Mostly Cloudy,110,2012-12-09 02:13:00
8:34 PM,33.8,28.4,81,29.98,10.0,ESE,8.1,-,N/A,,Overcast,110,2012-12-09 02:34:00
8:53 PM,33.8,28.4,81,29.98,10.0,ESE,10.4,-,N/A,,Overcast,110,2012-12-09 02:53:00
9:14 PM,33.8,26.6,75,29.98,10.0,ESE,10.4,-,N/A,,Overcast,120,2012-12-09 03:14:00
9:34 PM,33.8,26.6,75,29.97,10.0,ESE,10.4,-,N/A,,Overcast,120,2012-12-09 03:34:00
9:53 PM,33.8,26.6,75,29.97,10.0,ESE,10.4,-,N/A,,Overcast,120,2012-12-09 03:53:00
10:13 PM,33.8,26.6,75,29.96,10.0,ESE,11.5,17.3,N/A,,Overcast,120,2012-12-09 04:13:00
10:33 PM,33.8,26.6,75,29.96,10.0,ESE,15.0,20.7,N/A,,Overcast,120,2012-12-09 04:33:00
10:53 PM,35.6,28.4,75,29.96,10.0,SE,16.1,21.9,N/A,,Overcast,130,2012-12-09 04:53:00
11:14 PM,35.6,28.4,75,29.97,10.0,SE,13.8,23.0,N/A,,Overcast,130,2012-12-09 05:14:00
11:33 PM,35.6,28.4,75,29.96,10.0,ESE,15.0,19.6,N/A,,Overcast,120,2012-12-09 05:33:00
11:53 PM,35.6,28.4,75,29.97,10.0,SE,11.5,19.6,N/A,,Overcast,130,2012-12-09 05:53:00